[[{"header":{"parameterUnit":"m.s-1","parameterCategory":1,"la1":30.2991,"la2":30.254,"lo1":-89.0895,"lo2":-89.0444,"dy":0.0017,"dx":0.0017,"nx":28,"ny":28,"refTime":"2023-07-26T21:00:00:Z","depth":0,"parameterNumber":2,"parameterNumberName":"U-component_of_WINDS"},"data":[0,0,0,0,0,0,0,0,0,0,0,0,0,0,0,0,0,0,0,0,0,0,0,0,0,0,0,0,0,0,0,0,0,0,0,0,0,0,0,0,0,0,0,0,0,0,0,0,0,0,0,0,0,0,0,0,0,0,-0.1235,-0.1234,0,-0.1116,-0.1115,-0.1113,-0.1139,-0.1142,-0.1144,-0.1146,-0.1023,-0.1018,-0.1013,0,0,0,0,0,0,0,0,0,0,0,0,0,-0.1483,-0.1479,-0.1235,-0.1233,-0.1232,-0.1116,-0.1115,-0.1113,-0.1139,-0.1142,-0.1144,-0.1147,-0.1025,-0.1019,-0.1012,0,0,0,0,0,0,0,0,0,0,0,0,0,-0.1371,-0.1477,-0.1235,-0.1231,-0.123,-0.1117,-0.1115,-0.1113,-0.1138,-0.1142,-0.1145,-0.1148,-0.1027,-0.1019,-0.1011,-0.0895,0,0,-0.0987,-0.0983,0,0,0,0,0,0,0,0,-0.1377,-0.1362,-0.1233,-0.1231,-0.1229,-0.1146,-0.1157,-0.1039,-0.1138,-0.1173,-0.1146,-0.115,-0.1061,-0.1051,-0.1021,-0.0889,-0.0884,-0.0986,-0.0981,-0.0978,-0.0975,0,0,0,0,0,0,0,-0.1385,-0.1367,-0.1188,-0.1231,-0.1229,-0.1235,-0.1222,-0.1135,-0.11,-0.117,-0.1172,-0.1157,-0.1061,-0.1029,-0.1018,-0.0882,-0.0986,-0.0979,-0.0974,-0.0971,-0.0649,-0.0645,0,0,0,0,0,0,-0.1395,-0.1373,-0.1192,-0.1184,-0.1313,-0.1228,-0.1214,-0.1169,-0.1101,-0.1094,-0.1155,-0.1159,-0.1041,-0.1028,-0.1014,-0.0874,-0.0978,-0.097,-0.0966,-0.0653,-0.0648,-0.0644,0,0,0,0,0,0,-0.14,-0.1378,-0.1197,-0.1279,-0.1257,-0.122,-0.1169,-0.1165,-0.1133,-0.1089,-0.1083,-0.1128,-0.1043,-0.1025,-0.0924,-0.087,-0.0967,-0.0959,-0.0657,-0.0651,-0.0646,-0.0592,0,0,0,0,0,0,-0.1407,-0.138,-0.1336,-0.1278,-0.1252,-0.1109,-0.1166,-0.116,-0.1119,-0.1124,-0.1063,-0.1056,-0.1044,-0.0936,-0.0916,-0.086,-0.0953,-0.0662,-0.0655,-0.0648,-0.0598,-0.0585,-0.0574,0,0,0,0,0,-0.1416,-0.1325,-0.1333,-0.1311,-0.1196,-0.1106,-0.1091,-0.108,-0.1115,-0.107,-0.1042,-0.1058,-0.0879,-0.0926,-0.0904,-0.0844,-0.0665,-0.0657,-0.0648,-0.0604,-0.0588,-0.0574,0,0,0,0,0,0,-0.1376,-0.1317,-0.1326,-0.1214,-0.1165,-0.111,-0.1053,-0.1063,-0.1002,-0.1009,-0.0997,-0.0983,-0.0881,-0.0852,-0.0906,-0.0728,-0.0777,-0.0764,-0.0751,-0.0735,-0.0723,-0.0732,-0.0946,0,0,0,0,0,-0.1355,-0.1287,-0.1239,-0.1144,-0.1119,-0.109,-0.1051,-0.1046,-0.0995,-0.0974,-0.0939,-0.0888,-0.082,-0.0776,-0.0711,-0.0594,-0.0582,-0.0543,-0.053,-0.052,-0.0509,-0.0446,-0.0428,-0.0617,-0.0617,-0.0617,0,0,-0.1309,-0.1268,-0.1226,-0.1135,-0.1097,-0.1027,-0.1073,-0.0996,-0.0944,-0.0962,-0.0865,-0.0837,-0.078,-0.0671,-0.0621,-0.0644,-0.0454,-0.051,-0.0502,-0.0496,-0.0435,-0.0418,-0.0402,-0.0611,-0.0612,-0.0613,0,0,-0.119,-0.1153,-0.107,-0.1031,-0.0972,-0.0953,-0.0934,-0.0878,-0.086,-0.0762,-0.0775,-0.0712,-0.0596,-0.0555,-0.0518,-0.0384,-0.0397,-0.0363,-0.0299,-0.0237,-0.0222,-0.0209,-0.0162,-0.0145,-0.0352,-0.0352,-0.0352,0,-0.1141,-0.1037,-0.1026,-0.0949,-0.0909,-0.0922,-0.0838,-0.08,-0.0723,-0.0695,-0.0722,-0.0577,-0.0539,-0.0421,-0.0388,-0.0358,-0.0335,-0.037,-0.0225,-0.0212,-0.02,-0.0154,-0.0137,-0.0348,-0.0349,-0.0349,-0.0349,0,-0.0979,-0.0906,-0.0846,-0.0772,-0.0725,-0.0645,-0.0622,-0.0576,-0.0575,-0.0554,-0.0454,-0.0409,-0.0336,-0.0307,-0.0306,-0.0189,-0.0205,-0.0228,-0.0277,-0.0178,-0.0136,-0.0118,-0.0343,-0.0344,-0.0345,-0.0346,0,0,-0.0833,-0.0754,-0.0733,-0.0699,-0.0635,-0.0579,-0.0499,-0.0428,-0.0388,-0.0334,-0.0267,-0.0169,-0.019,-0.0149,-0.0143,-0.0089,0.0014,-0.0119,-0.0118,-0.0097,0.0145,0.0162,0.0182,0.0006,0.001,0.0012,0.014,0,-0.0709,-0.0569,-0.0558,-0.0432,-0.0365,-0.0376,-0.0307,-0.026,-0.0237,-0.0177,-0.0152,-0.0083,-0.0116,-0.0091,-0.0038,-0.001,0.0063,-0.0019,0.0068,0.0071,0.0053,0.0204,0.0222,0.034,0.0157,0.016,0.0162,0,-0.0546,-0.0488,-0.0356,-0.0302,-0.0273,-0.0211,-0.0145,-0.0087,-0.0034,-0.0021,0.0025,0.0023,0.0105,0.0054,0.0167,0.0112,0.0148,0.0167,0.0172,0.018,0.0122,0.0215,0.0378,0.0395,0.0188,0.0186,0.0184,0,-0.0454,-0.0343,-0.0249,-0.022,-0.0155,-0.0111,-0.0081,-0.0032,0.0011,0.0069,0.0096,0.0163,0.02,0.0251,0.0268,0.023,0.038,0.0331,0.0393,0.0392,0.0424,0.0422,0.0595,0.0449,0.0449,0.0449,0.0448,0,-0.0318,-0.0237,-0.0207,-0.015,-0.0059,-0.0046,0.0044,0.0071,0.0115,0.0178,0.0172,0.0231,0.025,0.0313,0.0327,0.0417,0.0434,0.0446,0.0449,0.0446,0.0445,0.0469,0.0461,0.0454,0.0453,0.0452,0.0451,0,-0.02,-0.0177,-0.0076,-0.0022,-0.0007,0.0058,0.0104,0.0159,0.0181,0.026,0.028,0.0313,0.0386,0.0409,0.0497,0.0506,0.0612,0.0608,0.0594,0.0594,0.0654,0.0648,0.0848,0.0875,0.0713,0.0715,0.0716,0,-0.0116,-0.0053,0.0007,0.0049,0.008,0.0147,0.0189,0.0205,0.0249,0.0315,0.0362,0.0434,0.0492,0.061,0.0642,0.0709,0.0706,0.0772,0.0716,0.0711,0.0705,0.0701,0.0707,0.0782,0.0783,0.0785,0.0786,0,0.0032,0.004,0.0102,0.0168,0.0219,0.0272,0.0323,0.0357,0.038,0.043,0.0505,0.055,0.064,0.0711,0.0779,0.081,0.0802,0.0803,0.0821,0.0818,0.0807,0.0813,0.0621,0.0798,0.0797,0.0796,0.0795,0.0795,0.0135,0.019,0.0241,0.031,0.0349,0.0397,0.0451,0.048,0.0542,0.0616,0.0621,0.0702,0.0753,0.0844,0.0878,0.0941,0.0922,0.0948,0.0954,0.096,0.0964,0.0798,0.0954,0.0953,0.0953,0.0953,0.0952,0,0.0282,0.0314,0.0377,0.0448,0.0502,0.049,0.0546,0.0592,0.0662,0.0711,0.0768,0.0854,0.0923,0.0961,0.103,0.1073,0.1071,0.1091,0.1087,0.1094,0.0978,0.0955,0.1091,0.1091,0.1091,0.1091,0.1091,0.1091,0.0364,0.0455,0.047,0.0581,0.0613,0.0691,0.0724,0.0767,0.0806,0.0901,0.0959,0.0983,0.1028,0.11,0.1163,0.1172,0.1197,0.1219,0.1226,0.1116,0.1102,0.1089,0.1067,0.1225,0.1225,0.1337,0.1338,0.1338]},{"header":{"parameterUnit":"m.s-1","parameterCategory":1,"la1":30.2991,"la2":30.254,"lo1":-89.0895,"lo2":-89.0444,"dy":0.0017,"dx":0.0017,"nx":28,"ny":28,"refTime":"2023-07-26T21:00:00:Z","depth":0,"parameterNumber":3,"parameterNumberName":"V-component_of_WINDS"},"data":[0,0,0,0,0,0,0,0,0,0,0,0,0,0,0,0,0,0,0,0,0,0,0,0,0,0,0,0,0,0,0,0,0,0,0,0,0,0,0,0,0,0,0,0,0,0,0,0,0,0,0,0,0,0,0,0,0,0,1.5404,1.5404,0,1.5399,1.5399,1.5399,1.5402,1.5402,1.5402,1.5402,1.5395,1.5395,1.5395,0,0,0,0,0,0,0,0,0,0,0,0,0,1.5415,1.5415,1.5404,1.5404,1.5404,1.5399,1.5399,1.5399,1.5402,1.5402,1.5402,1.5402,1.5395,1.5395,1.5395,0,0,0,0,0,0,0,0,0,0,0,0,0,1.541,1.5415,1.5404,1.5405,1.5405,1.5399,1.5399,1.5399,1.5402,1.5402,1.5402,1.5402,1.5396,1.5395,1.5395,1.5387,0,0,1.5393,1.5393,0,0,0,0,0,0,0,0,1.541,1.541,1.5405,1.5405,1.5405,1.5401,1.54,1.5395,1.5402,1.5403,1.5402,1.5403,1.5397,1.5396,1.5395,1.5386,1.5386,1.5393,1.5393,1.5392,1.5392,0,0,0,0,0,0,0,1.5411,1.541,1.5402,1.5405,1.5405,1.5405,1.5405,1.5399,1.5399,1.5403,1.5403,1.5403,1.5397,1.5395,1.5395,1.5386,1.5393,1.5393,1.5392,1.5392,1.5369,1.5368,0,0,0,0,0,0,1.5411,1.541,1.5402,1.5402,1.5408,1.5405,1.5404,1.5402,1.5399,1.5398,1.5402,1.5403,1.5396,1.5395,1.5394,1.5384,1.5392,1.5392,1.5392,1.5369,1.5369,1.5368,0,0,0,0,0,0,1.5412,1.5411,1.5402,1.5406,1.5405,1.5404,1.5402,1.5402,1.54,1.5398,1.5398,1.5401,1.5396,1.5395,1.5388,1.5383,1.5392,1.5391,1.5369,1.5369,1.5368,1.5363,0,0,0,0,0,0,1.5412,1.5411,1.5408,1.5406,1.5405,1.5397,1.5402,1.5402,1.54,1.54,1.5397,1.5396,1.5396,1.5389,1.5388,1.5383,1.5391,1.537,1.5369,1.5369,1.5363,1.5362,1.5361,0,0,0,0,0,1.5412,1.5407,1.5408,1.5407,1.5402,1.5397,1.5396,1.5396,1.5399,1.5396,1.5395,1.5397,1.5384,1.5388,1.5387,1.5382,1.537,1.5369,1.5369,1.5364,1.5362,1.5361,0,0,0,0,0,0,1.5408,1.5407,1.5408,1.5402,1.54,1.5397,1.5394,1.5395,1.5391,1.5392,1.5392,1.5391,1.5384,1.5382,1.5387,1.5373,1.5377,1.5376,1.5374,1.5373,1.5372,1.5372,1.539,0,0,0,0,0,1.5407,1.5404,1.5402,1.5397,1.5396,1.5395,1.5393,1.5393,1.539,1.5389,1.5387,1.5384,1.5379,1.5376,1.5372,1.5363,1.5362,1.5359,1.5358,1.5357,1.5356,1.5349,1.5348,1.5366,1.5366,1.5366,0,0,1.5404,1.5402,1.54,1.5396,1.5394,1.539,1.5394,1.5389,1.5386,1.5388,1.5381,1.538,1.5376,1.5368,1.5364,1.5366,1.535,1.5356,1.5355,1.5355,1.5348,1.5347,1.5345,1.5365,1.5366,1.5366,0,0,1.5395,1.5395,1.539,1.5387,1.5385,1.5384,1.5383,1.538,1.5379,1.5372,1.5374,1.5369,1.5361,1.5358,1.5355,1.5344,1.5345,1.5343,1.5337,1.5331,1.5329,1.5328,1.5322,1.5321,1.5342,1.5342,1.5342,0,1.5392,1.5386,1.5387,1.5382,1.5379,1.5381,1.5375,1.5373,1.5369,1.5367,1.5369,1.5358,1.5356,1.5347,1.5344,1.5342,1.5339,1.5343,1.5329,1.5328,1.5327,1.5322,1.532,1.5342,1.5342,1.5342,1.5342,0,1.5381,1.5376,1.5372,1.5368,1.5365,1.536,1.5359,1.5356,1.5356,1.5355,1.5347,1.5344,1.5338,1.5336,1.5337,1.5326,1.5327,1.533,1.5334,1.5325,1.532,1.5318,1.5341,1.5341,1.5341,1.5341,0,0,1.537,1.5366,1.5364,1.5362,1.5358,1.5354,1.5348,1.5343,1.534,1.5336,1.533,1.5323,1.5325,1.5322,1.5322,1.5316,1.5306,1.5319,1.5319,1.5315,1.5292,1.5289,1.5287,1.5307,1.5306,1.5306,1.5292,0,1.5361,1.5351,1.5351,1.5341,1.5336,1.5338,1.5332,1.5329,1.5327,1.5322,1.532,1.5315,1.5318,1.5316,1.5311,1.5308,1.5301,1.5309,1.5299,1.5299,1.5299,1.5285,1.5282,1.5269,1.529,1.5289,1.5289,0,1.5349,1.5345,1.5335,1.533,1.5328,1.5324,1.5318,1.5313,1.5309,1.5308,1.5304,1.5304,1.5297,1.5302,1.529,1.5296,1.5292,1.529,1.5289,1.5288,1.5293,1.5281,1.5265,1.5262,1.5287,1.5287,1.5287,0,1.534,1.5333,1.5325,1.5323,1.5318,1.5315,1.5312,1.5308,1.5305,1.5299,1.5297,1.529,1.5287,1.5281,1.5279,1.5284,1.5267,1.5273,1.5265,1.5265,1.5261,1.5261,1.5243,1.526,1.5261,1.5261,1.5261,0,1.5329,1.5323,1.5321,1.5317,1.5309,1.5308,1.53,1.5298,1.5294,1.5288,1.5289,1.5283,1.5282,1.5275,1.5273,1.5263,1.5262,1.526,1.5259,1.5259,1.5259,1.5256,1.5256,1.526,1.526,1.526,1.526,0,1.5319,1.5318,1.531,1.5305,1.5304,1.5298,1.5294,1.5289,1.5287,1.528,1.5278,1.5274,1.5266,1.5264,1.5255,1.5253,1.5241,1.5242,1.5242,1.5242,1.5234,1.5234,1.5212,1.5208,1.5229,1.5229,1.5229,0,1.5312,1.5307,1.5302,1.5298,1.5295,1.5289,1.5285,1.5284,1.528,1.5274,1.5269,1.5261,1.5255,1.5242,1.5238,1.523,1.523,1.5222,1.5229,1.5228,1.5228,1.5228,1.5226,1.5221,1.5221,1.522,1.522,0,1.5298,1.5298,1.5292,1.5286,1.5281,1.5277,1.5272,1.5268,1.5266,1.5261,1.5253,1.5248,1.5238,1.523,1.5221,1.5218,1.5218,1.5218,1.5216,1.5215,1.5215,1.5213,1.5238,1.5219,1.5219,1.5219,1.5219,1.5219,1.5288,1.5283,1.5279,1.5272,1.5268,1.5263,1.5258,1.5255,1.5249,1.5241,1.524,1.5231,1.5225,1.5214,1.5209,1.5201,1.5203,1.52,1.5199,1.5198,1.5196,1.5217,1.52,1.52,1.52,1.52,1.52,0,1.5274,1.5271,1.5265,1.5258,1.5252,1.5254,1.5248,1.5243,1.5235,1.5229,1.5223,1.5213,1.5204,1.5199,1.519,1.5184,1.5184,1.5182,1.5181,1.518,1.5196,1.5198,1.5182,1.5182,1.5182,1.5182,1.5182,1.5182,1.5266,1.5257,1.5255,1.5244,1.524,1.5232,1.5228,1.5223,1.5218,1.5207,1.52,1.5197,1.5191,1.5181,1.5172,1.5171,1.5167,1.5164,1.5163,1.5178,1.5179,1.5181,1.5183,1.5164,1.5164,1.5147,1.5147,1.5147]}]]